Regional Weather Roundup
Issued by NWS

Home | Current Version | Previous Version | Text Only | Print | Product List | Glossary Off
Versions: 1 2 3 4 5 6 7 8 9 10 11 12 13 14 15 16 17 18 19 20 21 22 23 24 25 26 27 28 29 30 31 32 33 34 35 36 37 38 39 40 41 42 43 44 45 46 47 48 49 50

000
ASUS45 KSLC 261010
RWRUT

UTAH REGIONAL WEATHER ROUNDUP
NATIONAL WEATHER SERVICE SALT LAKE CITY UT
400 AM MDT FRI AUG 26 2016

UTZ001>011-023>025-261100-

NORTHERN UTAH

CITY           SKY/WX    TMP DP  RH WIND       PRES   REMARKS
BRIGHAM CITY     N/A     58  38  48 CALM      30.03F
HILL AFB         N/A     62  29  29 SE14      30.05S
LOGAN            N/A     50  36  58 NE3       30.05S
OGDEN            N/A     61  30  31 S10       30.03S
PROVO AIRPORT    N/A     61  39  44 E8        30.06S
SALT LAKE CITY   N/A     68  36  30 S13       30.02S
VERNAL           N/A     50  41  71 CALM      30.16F
WENDOVER         N/A     64  27  24 E5        30.02S
HEBER CITY       N/A     50  36  57 CALM      30.12S
WEST JORDAN      N/A     62  40  44 S7        30.05S

$$

UTZ012>022-026-027-261100-

SOUTHERN/CENTRAL UTAH

CITY           SKY/WX    TMP DP  RH WIND       PRES   REMARKS
BLANDING         N/A     51  48  89 NE6       30.28F
BRYCE CANYON   CLOUDY    48  45  89 W6        30.30S
CEDAR CITY       N/A     58  43  57 SW3       30.15F
MILFORD          N/A     61  45  55 VRB6      30.08S
MOAB/CYNLANDS    N/A     60  47  61 SE5       30.13F
PRICE            N/A     52  38  58 NE7       30.20S
ST GEORGE        N/A     68  48  49 SE5       30.06S

$$

REGIONAL REPORTS     COLORADO/ARIZONA

CITY           SKY/WX    TMP DP  RH WIND       PRES   REMARKS
CRAIG, CO        N/A     46  39  76 SW3       30.22F
GRAND JUNCTION   N/A     56  48  74 E12       30.17F
RIFLE            N/A     50  49  96 SE3       30.23F
MONTROSE         N/A     52  46  80 S6        30.25F
CORTEZ           N/A     52  50  93 W5        30.23S
PAGE, AZ       MOCLDY    63  56  78 S7        30.16R
GRAND CANYON     N/A    N/A N/A N/A MISG      30.29R
KINGMAN          N/A     74  52  46 SE12      30.01R
FLAGSTAFF      LGT RAIN  51  50  96 N3        30.32R

$$

REGIONAL REPORTS    NEVADA/IDAHO/WYOMING

CITY           SKY/WX    TMP DP  RH WIND       PRES   REMARKS
LAS VEGAS, NV    N/A     83  41  22 NE7       29.84R
ELY              N/A     43  30  60 S3        30.14S
ELKO             N/A     47  22  37 CALM      30.08S
POCATELLO, ID    N/A     45  33  63 NW5       30.06S
BURLEY           N/A     48  39  71 N5        30.02S
EVANSTON, WY     N/A     48  31  51 E10       30.20F
ROCK SPRINGS     N/A     47  38  71 CALM      30.21F

$$



USA.gov is the U.S. government's official web portal to all federal, state and local government web resources and services.